FW8396 Weather Reports


Display with metric or nautical units.
time (UTC)temp
F
wind
direction
speed
MPH
gust
MPH
rain 1hr
in
rain 24hr
in
rain mn
in
humidity
%
barometer
mb
20260503203027 81 180 1.0 8.0 0.00 0.00 0.00 37 1021.4
20260503201531 81 153 3.0 9.0 0.00 0.00 0.00 37 1021.6
20260503200029 81 0 1.0 11.0 0.00 0.00 0.00 36 1021.9
20260503194531 81 112 2.0 7.0 0.00 0.00 0.00 36 1022.1
20260503193039 81 121 3.0 10.0 0.00 0.00 0.00 37 1022.3
20260503191528 81 93 2.0 9.0 0.00 0.00 0.00 36 1022.5
20260503190031 80 124 3.0 9.0 0.00 0.00 0.00 37 1022.8
20260503184533 80 59 1.0 8.0 0.00 0.00 0.00 38 1022.9
20260503183030 80 186 1.0 7.0 0.00 0.00 0.00 36 1023.0
20260503181528 80 165 3.0 11.0 0.00 0.00 0.00 36 1023.2
20260503180030 79 141 0.0 7.0 0.00 0.00 0.00 37 1023.2
20260503174533 79 107 3.0 10.0 0.00 0.00 0.00 37 1023.7
20260503173028 78 244 1.0 9.0 0.00 0.00 0.00 38 1024.0
20260503171530 79 250 2.0 7.0 0.00 0.00 0.00 41 1024.2
20260503081531 58 0 0.0 0.0 0.00 0.00 0.00 87 1022.5
20260503071533 58 0 0.0 0.0 0.00 0.00 0.00 85 1022.6
20260503054537 61 0 0.0 0.0 0.00 0.00 0.00 82 1022.8
20260503053028 61 0 0.0 0.0 0.00 0.00 0.00 80 1022.6
20260503051531 61 0 0.0 0.0 0.00 0.00 0.00 79 1022.7
20260503050028 62 0 0.0 0.0 0.00 0.00 0.00 79 1022.6
20260503044536 62 0 0.0 0.0 0.00 0.00 0.00 78 1022.4
20260503043029 62 0 0.0 0.0 0.00 0.00 0.00 77 1022.1
20260503041530 63 0 0.0 0.0 0.00 0.00 0.00 75 1022.5
20260503040030 63 0 0.0 0.0 0.00 0.00 0.00 74 1022.5
20260503034528 64 0 0.0 0.0 0.00 0.00 0.00 73 1022.1
20260503033030 64 0 0.0 0.0 0.00 0.00 0.00 72 1022.0
20260503031530 65 0 0.0 0.0 0.00 0.00 0.00 70 1021.8
20260503030029 66 0 0.0 0.0 0.00 0.00 0.00 69 1021.9
20260503024530 66 0 0.0 0.0 0.00 0.04 0.00 67 1021.8
20260503023030 67 0 0.0 0.0 0.00 0.04 0.00 66 1021.6
20260503021529 68 0 0.0 0.0 0.00 0.04 0.00 62 1021.5
20260503020027 69 0 0.0 0.0 0.00 0.04 0.00 60 1021.6
20260503014528 70 0 0.0 0.0 0.00 0.10 0.00 57 1021.2
20260503013036 71 0 0.0 0.0 0.00 0.10 0.00 54 1021.0
20260503011534 72 0 0.0 2.0 0.00 0.10 0.00 50 1020.8
20260503010028 73 0 0.0 5.0 0.00 0.10 0.00 49 1020.5
20260503004531 73 300 0.0 8.0 0.00 0.23 0.00 48 1020.4
20260503003033 74 341 2.0 10.0 0.00 0.23 0.00 46 1020.1
20260503001530 75 0 2.0 9.0 0.00 0.23 0.00 45 1020.1
20260503000028 76 340 2.0 8.0 0.00 0.23 0.00 44 1019.9
20260502234527 76 49 1.0 9.0 0.00 0.39 0.00 44 1019.8
20260502233029 77 198 0.0 10.0 0.00 0.39 0.00 44 1019.6
20260502231529 77 286 3.0 12.0 0.00 0.39 0.00 43 1019.7
20260502230028 77 61 3.0 11.0 0.00 0.39 0.00 44 1019.5
20260502224527 77 338 3.0 10.0 0.00 0.47 0.00 44 1019.5
20260502223029 77 319 2.0 9.0 0.00 0.47 0.00 44 1019.5
20260502221528 77 313 2.0 10.0 0.00 0.47 0.00 44 1019.6
20260502220029 77 290 2.0 10.0 0.00 0.47 0.00 44 1019.7
20260502214536 78 103 1.0 11.0 0.00 0.90 0.00 44 1019.7
20260502213030 77 329 4.0 15.0 0.00 0.90 0.00 43 1019.7
20260502211529 77 282 3.0 11.0 0.00 0.90 0.00 43 1019.8
20260502210031 77 292 3.0 12.0 0.00 0.90 0.00 44 1020.1
20260502204528 77 107 3.0 10.0 0.00 1.28 0.00 43 1020.0